Regional Weather Roundup
Issued by NWS Midland/Odessa, TX

Skip options and go directly to product.
Home | Oldest Version | Next Version | Current Version | All | Text Only | Save Text | Print | Product List | Glossary On

Skip product version selection by date and time.   
295
ASUS44 KMAF 251901
RWRMAF
MIDLAND AREA WEATHER ROUNDUP
NATIONAL WEATHER SERVICE MIDLAND TX
200 PM CDT WED MAR 25 2015

...IN SOUTHWEST TEXAS AND SOUTHEAST NEW MEXICO...

CITY           SKY/WX    TMP DP  RH WIND       PRES   REMARKS
ALPINE         SUNNY     77  22  13 SW17G25   30.08F
ANDREWS        FAIR      81  29  15 W17       29.91F
ARTESIA        PTSUNNY   79  21  11 VRB6G17   29.92F
BIG SPRING     SUNNY     84  35  17 SW13      29.91F
CARLSBAD       PTSUNNY   79  18  10 W26       29.91F
DRYDEN           N/A     79  59  50 VRB3      29.90F
FORT STOCKTON  SUNNY     82  27  13 W17       29.94F
GUAD PASS      SUNNY     67  19  16 W40G47    30.02F
HOBBS          SUNNY     79  19  11 SW20      29.93F
MARFA          SUNNY     73  23  15 W14G22    30.08F
MIDLAND AIRPK  SUNNY     81  34  18 CALM      29.91F
MIDLAND INTL   SUNNY     82  37  20 W16G22    29.90F
ODESSA         SUNNY     81  31  16 W16       29.91F
PECOS          SUNNY     82  29  15 W21G30    29.92F
PRESIDIO       FAIR      82  26  13 W7        29.98F
SEMINOLE       SUNNY     81  25  13 W14G20    29.91S
SNYDER         SUNNY     81  42  24 SW14      29.86F
WINK           SUNNY     83  19   9 W23       29.89F
$$
...OTHER STATIONS IN TEXAS...

CITY           SKY/WX    TMP DP  RH WIND       PRES   REMARKS
ABILENE        MOSUNNY   83  56  39 S25G31    29.83F
AMARILLO       SUNNY     70  29  21 NW20G26   29.89R
AUSTIN         MOSUNNY   79  63  57 S14G22    29.91F
BROWNSVILLE    LGT RAIN  73  70  90 SE15      29.94F FOG
CORPUS CHRISTI CLOUDY    76  67  73 S22       29.94F
DALLAS FTW     MOSUNNY   78  59  51 S21       29.86F
DEL RIO        CLOUDY    71  62  73 SE6       29.90F
EL PASO        PTSUNNY   75  17  11 SW16G22   30.01F
HOUSTON INT    PTSUNNY   78  60  53 S12       29.97F
LUBBOCK        SUNNY     83  19   9 SW18G26   29.84F
SAN ANGELO     SUNNY     84  56  38 SW17G25   29.86F
SAN ANTONIO    MOSUNNY   78  62  57 S14G25    29.93F
WACO           SUNNY     76  60  57 S17       29.91F
WICHITA FALLS  NOT AVBL
$$
...OTHER LOCATIONS IN NEW MEXICO...

CITY           SKY/WX    TMP DP  RH WIND       PRES   REMARKS
ALAMAGORDO     MOSUNNY   72  18  13 W12G23    30.01F
ALBUQUERQUE    MOSUNNY   65  25  22 NW20G26   30.04F
CANNON AFB     NOT AVBL
CLOVIS         PTSUNNY   73  23  15 W9        29.90S
HOLLOMAN AFB   NOT AVBL
ROSWELL        PTSUNNY   76  16  10 W14G20    29.92F
RUIDOSO        MOSUNNY   61  14  16 NW15G23   30.08F
SANTA FE       MOSUNNY   62  22  21 W17G26    30.01F
TRUTH OR CONSE MOSUNNY   71  20  14 NW17G24   30.01F
TUCUMCARI      MOSUNNY   74  23  15 NE20      29.90R
$$

USA.gov is the U.S. government's official web portal to all federal, state and local government web resources and services.